Location: Bratsk-Energetik
(56.3300°N, 101.7600°E)
Time: 19:59:21
(UTC+08:00)

ISS - Pass Details

Date: 21 July 2018
Orbit: 402 x 408 km, 51.6° (Epoch: 21 July)

Event Time Altitude Azimuth Distance (km) Brightness Sun altitude
Rises 01:10:42 0° 254° (WSW) 2,325 -0.1 -13.1°
Reaches altitude 10° 01:12:52 10° 246° (WSW) 1,466 -1.2 -13.1°
Maximum altitude 01:15:55 36° 178° (S) 666 -3.3 -13.1°
Drops below altitude 10° 01:18:58 10° 110° (ESE) 1,469 -1.2 -13.1°
Sets 01:21:09 0° 102° (ESE) 2,331 -0.1 -13.1°
